contact:dominique.lefevre@mio.osupytheas.fr, maurice.libes@osupytheas.fr, didier.mallarino@osupytheas.fr
Project:EMSO http://www.emso-fr.org/EMSO-France
Depth: 2436.0 m
Title:EMSO Ligure Ouest : Data MII capteur CSTAR
DateTime,Latitude,Longitude,Instrument_Serial,Reference_Counts,Signal_Counts,Corrected_Signal_raw_counts,Calculated_Beam_c_inverse_meters,Internal_thermistor_counts
DateTime,Latitude,Longitude,Instrument_Serial,Reference_Counts,Signal_Counts,Corrected_Signal_raw_counts,Calculated_Beam_c_inverse_meters,Internal_thermistor_counts
2023-04-16T00:02:59,42.805,6.029,CST-1368DR,4321,4735,11636,01.177,551
2023-04-16T00:06:00,42.805,6.029,CST-1368DR,4321,4733,11632,01.178,551
2023-04-16T00:09:02,42.805,6.029,CST-1368DR,4321,4737,11640,01.175,551
2023-04-16T00:12:04,42.805,6.029,CST-1368DR,4321,4736,11638,01.176,551
2023-04-16T00:15:05,42.805,6.029,CST-1368DR,4321,4736,11639,01.176,551
2023-04-16T00:18:07,42.805,6.029,CST-1368DR,4321,4737,11640,01.175,551
2023-04-16T00:21:08,42.805,6.029,CST-1368DR,4321,4734,11634,01.177,551
2023-04-16T00:24:10,42.805,6.029,CST-1368DR,4321,4738,11642,01.175,551
2023-04-16T00:27:11,42.805,6.029,CST-1368DR,4321,4736,11638,01.176,551
2023-04-16T00:30:13,42.805,6.029,CST-1368DR,4321,4737,11640,01.175,551
2023-04-16T00:33:15,42.805,6.029,CST-1368DR,4321,4736,11639,01.176,551
2023-04-16T00:36:16,42.805,6.029,CST-1368DR,4321,4738,11644,01.174,551
2023-04-16T00:39:18,42.805,6.029,CST-1368DR,4321,4738,11642,01.175,552
2023-04-16T00:42:19,42.805,6.029,CST-1368DR,4321,4737,11640,01.175,551
2023-04-16T00:45:21,42.805,6.029,CST-1368DR,4321,4739,11645,01.174,551
2023-04-16T00:48:22,42.805,6.029,CST-1368DR,4321,4739,11647,01.173,551
2023-04-16T00:51:24,42.805,6.029,CST-1368DR,4321,4739,11646,01.173,551
2023-04-16T00:54:26,42.805,6.029,CST-1368DR,4321,4738,11644,01.174,551
2023-04-16T00:57:27,42.805,6.029,CST-1368DR,4321,4733,11632,01.178,551
2023-04-16T01:00:29,42.805,6.029,CST-1368DR,4321,4739,11645,01.174,551
2023-04-16T01:03:30,42.805,6.029,CST-1368DR,4321,4739,11645,01.174,551
2023-04-16T01:06:32,42.805,6.029,CST-1368DR,4321,4738,11642,01.175,551
2023-04-16T01:09:34,42.805,6.029,CST-1368DR,4321,4737,11641,01.175,551
2023-04-16T01:12:35,42.805,6.029,CST-1368DR,4321,4738,11642,01.175,551
2023-04-16T01:15:37,42.805,6.029,CST-1368DR,4321,4737,11642,01.175,551
2023-04-16T01:18:38,42.805,6.029,CST-1368DR,4321,4739,11645,01.174,551
2023-04-16T01:21:40,42.805,6.029,CST-1368DR,4321,4738,11642,01.175,551
2023-04-16T01:24:41,42.805,6.029,CST-1368DR,4321,4739,11647,01.173,551
2023-04-16T01:27:43,42.805,6.029,CST-1368DR,4322,4738,11642,01.175,552
2023-04-16T01:30:45,42.805,6.029,CST-1368DR,4321,4739,11646,01.173,551
2023-04-16T01:33:46,42.805,6.029,CST-1368DR,4321,4741,11650,01.172,551
2023-04-16T01:36:48,42.805,6.029,CST-1368DR,4321,4741,11651,01.172,551
2023-04-16T01:39:49,42.805,6.029,CST-1368DR,4321,4739,11646,01.173,551
2023-04-16T01:42:51,42.805,6.029,CST-1368DR,4321,4739,11646,01.173,551
2023-04-16T01:45:52,42.805,6.029,CST-1368DR,4321,4739,11646,01.173,551
2023-04-16T01:48:54,42.805,6.029,CST-1368DR,4321,4740,11647,01.173,551
2023-04-16T01:51:56,42.805,6.029,CST-1368DR,4321,4739,11645,01.174,551
2023-04-16T01:54:57,42.805,6.029,CST-1368DR,4321,4739,11646,01.173,551
2023-04-16T01:57:59,42.805,6.029,CST-1368DR,4321,4741,11650,01.172,551
2023-04-16T02:01:00,42.805,6.029,CST-1368DR,4321,4739,11646,01.173,551
2023-04-16T02:04:02,42.805,6.029,CST-1368DR,4321,4739,11647,01.173,551
2023-04-16T02:07:03,42.805,6.029,CST-1368DR,4321,4742,11654,01.171,551
2023-04-16T02:10:05,42.805,6.029,CST-1368DR,4321,4741,11651,01.172,551
2023-04-16T02:13:07,42.805,6.029,CST-1368DR,4321,4741,11650,01.172,551
2023-04-16T02:16:08,42.805,6.029,CST-1368DR,4321,4738,11642,01.175,551
2023-04-16T02:19:10,42.805,6.029,CST-1368DR,4321,4740,11649,01.172,551
2023-04-16T02:22:11,42.805,6.029,CST-1368DR,4321,4735,11636,01.177,551
2023-04-16T02:25:13,42.805,6.029,CST-1368DR,4321,4735,11637,01.176,551
2023-04-16T02:28:15,42.805,6.029,CST-1368DR,4321,4741,11650,01.172,551
2023-04-16T02:31:16,42.805,6.029,CST-1368DR,4321,4739,11646,01.173,551
2023-04-16T02:34:18,42.805,6.029,CST-1368DR,4321,4738,11642,01.175,552
2023-04-16T02:37:19,42.805,6.029,CST-1368DR,4321,4739,11646,01.173,551
2023-04-16T02:40:21,42.805,6.029,CST-1368DR,4321,4737,11640,01.175,551
2023-04-16T02:43:22,42.805,6.029,CST-1368DR,4321,4740,11648,01.173,551
2023-04-16T02:46:24,42.805,6.029,CST-1368DR,4321,4738,11644,01.174,551
2023-04-16T02:49:26,42.805,6.029,CST-1368DR,4321,4741,11650,01.172,551
2023-04-16T02:52:27,42.805,6.029,CST-1368DR,4321,4739,11647,01.173,551
2023-04-16T02:55:29,42.805,6.029,CST-1368DR,4321,4739,11647,01.173,551
2023-04-16T02:58:30,42.805,6.029,CST-1368DR,4321,4738,11644,01.174,552
2023-04-16T03:01:32,42.805,6.029,CST-1368DR,4321,4740,11649,01.172,551
2023-04-16T03:04:34,42.805,6.029,CST-1368DR,4321,4739,11646,01.173,551
2023-04-16T03:07:35,42.805,6.029,CST-1368DR,4321,4736,11639,01.176,551
2023-04-16T03:10:37,42.805,6.029,CST-1368DR,4321,4738,11644,01.174,551
2023-04-16T03:13:38,42.805,6.029,CST-1368DR,4321,4739,11647,01.173,551
2023-04-16T03:16:40,42.805,6.029,CST-1368DR,4321,4738,11642,01.175,551
2023-04-16T03:19:41,42.805,6.029,CST-1368DR,4321,4739,11647,01.173,551
2023-04-16T03:22:43,42.805,6.029,CST-1368DR,4321,4736,11639,01.176,551
2023-04-16T03:25:45,42.805,6.029,CST-1368DR,4321,4740,11649,01.172,551
2023-04-16T03:28:46,42.805,6.029,CST-1368DR,4321,4738,11644,01.174,551
2023-04-16T03:31:48,42.805,6.029,CST-1368DR,4321,4739,11646,01.173,551
2023-04-16T03:34:49,42.805,6.029,CST-1368DR,4321,4736,11638,01.176,551
2023-04-16T03:37:51,42.805,6.029,CST-1368DR,4321,4733,11630,01.179,551
2023-04-16T03:40:52,42.805,6.029,CST-1368DR,4321,4738,11644,01.174,551
2023-04-16T03:43:54,42.805,6.029,CST-1368DR,4321,4739,11646,01.173,551
2023-04-16T03:46:56,42.805,6.029,CST-1368DR,4321,4740,11649,01.172,552
2023-04-16T03:49:57,42.805,6.029,CST-1368DR,4321,4738,11644,01.174,551
2023-04-16T03:52:59,42.805,6.029,CST-1368DR,4321,4738,11644,01.174,551
2023-04-16T03:56:00,42.805,6.029,CST-1368DR,4321,4731,11627,01.180,551
2023-04-16T03:59:02,42.805,6.029,CST-1368DR,4321,4739,11646,01.173,551
2023-04-16T04:02:04,42.805,6.029,CST-1368DR,4321,4740,11649,01.172,551
2023-04-16T04:05:05,42.805,6.029,CST-1368DR,4321,4740,11648,01.173,551
2023-04-16T04:08:07,42.805,6.029,CST-1368DR,4321,4740,11647,01.173,551
2023-04-16T04:11:08,42.805,6.029,CST-1368DR,4321,4739,11645,01.174,551
2023-04-16T04:14:10,42.805,6.029,CST-1368DR,4321,4739,11647,01.173,551
2023-04-16T04:17:11,42.805,6.029,CST-1368DR,4321,4741,11650,01.172,551
2023-04-16T04:20:13,42.805,6.029,CST-1368DR,4321,4739,11645,01.174,551
2023-04-16T04:23:15,42.805,6.029,CST-1368DR,4321,4740,11649,01.172,551
2023-04-16T04:26:16,42.805,6.029,CST-1368DR,4321,4740,11649,01.172,551
2023-04-16T04:29:18,42.805,6.029,CST-1368DR,4321,4741,11651,01.172,551
2023-04-16T04:32:22,42.805,6.029,CST-1368DR,4321,4739,11647,01.173,551
2023-04-16T04:35:23,42.805,6.029,CST-1368DR,4321,4741,11650,01.172,551
2023-04-16T04:38:25,42.805,6.029,CST-1368DR,4321,4741,11650,01.172,551
2023-04-16T04:41:27,42.805,6.029,CST-1368DR,4321,4742,11652,01.171,551
2023-04-16T04:44:28,42.805,6.029,CST-1368DR,4321,4733,11631,01.178,552
2023-04-16T04:47:30,42.805,6.029,CST-1368DR,4321,4723,11606,01.187,551
2023-04-16T04:50:31,42.805,6.029,CST-1368DR,4321,4743,11655,01.170,551
2023-04-16T04:53:33,42.805,6.029,CST-1368DR,4321,4742,11652,01.171,551
2023-04-16T04:56:34,42.805,6.029,CST-1368DR,4321,4744,11657,01.170,551
2023-04-16T04:59:36,42.805,6.029,CST-1368DR,4321,4742,11653,01.171,551
2023-04-16T05:02:38,42.805,6.029,CST-1368DR,4321,4743,11655,01.170,551
2023-04-16T05:05:39,42.805,6.029,CST-1368DR,4321,4741,11650,01.172,551
2023-04-16T05:08:41,42.805,6.029,CST-1368DR,4321,4743,11657,01.170,551
2023-04-16T05:11:42,42.805,6.029,CST-1368DR,4321,4742,11653,01.171,551
2023-04-16T05:14:44,42.805,6.029,CST-1368DR,4321,4742,11654,01.171,551
2023-04-16T05:17:46,42.805,6.029,CST-1368DR,4321,4743,11655,01.170,551
2023-04-16T05:20:47,42.805,6.029,CST-1368DR,4321,4742,11652,01.171,551
2023-04-16T05:23:49,42.805,6.029,CST-1368DR,4321,4741,11650,01.172,551
2023-04-16T05:26:50,42.805,6.029,CST-1368DR,4321,4740,11647,01.173,551
2023-04-16T05:29:52,42.805,6.029,CST-1368DR,4321,4741,11651,01.172,551
2023-04-16T05:32:53,42.805,6.029,CST-1368DR,4321,4739,11647,01.173,552
2023-04-16T05:35:55,42.805,6.029,CST-1368DR,4321,4741,11650,01.172,551
2023-04-16T05:38:57,42.805,6.029,CST-1368DR,4321,4741,11651,01.172,552
2023-04-16T05:41:58,42.805,6.029,CST-1368DR,4321,4742,11654,01.171,551
2023-04-16T05:45:00,42.805,6.029,CST-1368DR,4321,4742,11653,01.171,551
2023-04-16T05:48:01,42.805,6.029,CST-1368DR,4321,4736,11639,01.176,551
2023-04-16T05:51:03,42.805,6.029,CST-1368DR,4321,4741,11650,01.172,551
2023-04-16T05:54:04,42.805,6.029,CST-1368DR,4321,4742,11652,01.171,551
2023-04-16T05:57:06,42.805,6.029,CST-1368DR,4321,4743,11657,01.170,551
2023-04-16T06:00:08,42.805,6.029,CST-1368DR,4321,4743,11655,01.170,551
2023-04-16T06:03:09,42.805,6.029,CST-1368DR,4321,4743,11657,01.170,551
2023-04-16T06:06:11,42.805,6.029,CST-1368DR,4321,4743,11655,01.170,551
2023-04-16T06:09:12,42.805,6.029,CST-1368DR,4321,4742,11654,01.171,551
2023-04-16T06:12:14,42.805,6.029,CST-1368DR,4321,4744,11659,01.169,551
2023-04-16T06:15:16,42.805,6.029,CST-1368DR,4321,4742,11654,01.171,551
2023-04-16T06:18:17,42.805,6.029,CST-1368DR,4321,4742,11652,01.171,551
2023-04-16T06:21:19,42.805,6.029,CST-1368DR,4321,4743,11655,01.170,551
2023-04-16T06:24:20,42.805,6.029,CST-1368DR,4321,4744,11659,01.169,551
2023-04-16T06:27:22,42.805,6.029,CST-1368DR,4321,4744,11658,01.169,551
2023-04-16T06:30:24,42.805,6.029,CST-1368DR,4321,4743,11655,01.170,551
2023-04-16T06:33:26,42.805,6.029,CST-1368DR,4321,4743,11657,01.170,551
2023-04-16T06:36:28,42.805,6.029,CST-1368DR,4321,4744,11657,01.170,551
2023-04-16T06:39:29,42.805,6.029,CST-1368DR,4321,4741,11650,01.172,551
2023-04-16T06:42:31,42.805,6.029,CST-1368DR,4321,4740,11648,01.173,551
2023-04-16T06:45:32,42.805,6.029,CST-1368DR,4321,4744,11657,01.170,551
2023-04-16T06:48:34,42.805,6.029,CST-1368DR,4321,4745,11660,01.169,551
2023-04-16T06:51:35,42.805,6.029,CST-1368DR,4321,4744,11658,01.169,551
2023-04-16T06:54:37,42.805,6.029,CST-1368DR,4321,4744,11657,01.170,551
2023-04-16T06:57:39,42.805,6.029,CST-1368DR,4321,4742,11652,01.171,551
2023-04-16T07:00:40,42.805,6.029,CST-1368DR,4321,4742,11653,01.171,551
2023-04-16T07:03:42,42.805,6.029,CST-1368DR,4321,4741,11651,01.172,551
2023-04-16T07:06:43,42.805,6.029,CST-1368DR,4321,4743,11655,01.170,551
2023-04-16T07:09:45,42.805,6.029,CST-1368DR,4321,4743,11656,01.170,551
2023-04-16T07:12:47,42.805,6.029,CST-1368DR,4321,4744,11658,01.169,551
2023-04-16T07:15:48,42.805,6.029,CST-1368DR,4321,4744,11657,01.170,551
2023-04-16T07:18:50,42.805,6.029,CST-1368DR,4321,4743,11655,01.170,551
2023-04-16T07:21:51,42.805,6.029,CST-1368DR,4321,4742,11653,01.171,551
2023-04-16T07:24:53,42.805,6.029,CST-1368DR,4321,4743,11656,01.170,551
2023-04-16T07:27:54,42.805,6.029,CST-1368DR,4321,4743,11656,01.170,551
2023-04-16T07:30:56,42.805,6.029,CST-1368DR,4321,4742,11654,01.171,551
2023-04-16T07:33:58,42.805,6.029,CST-1368DR,4321,4742,11654,01.171,551
2023-04-16T07:36:59,42.805,6.029,CST-1368DR,4321,4745,11661,01.168,551
2023-04-16T07:40:01,42.805,6.029,CST-1368DR,4321,4744,11658,01.169,551
2023-04-16T07:43:02,42.805,6.029,CST-1368DR,4321,4745,11660,01.169,551
2023-04-16T07:46:04,42.805,6.029,CST-1368DR,4321,4746,11662,01.168,551
2023-04-16T07:49:05,42.805,6.029,CST-1368DR,4321,4744,11658,01.169,551
2023-04-16T07:52:07,42.805,6.029,CST-1368DR,4321,4745,11661,01.168,551
2023-04-16T07:55:09,42.805,6.029,CST-1368DR,4321,4745,11660,01.169,551
2023-04-16T07:58:10,42.805,6.029,CST-1368DR,4321,4745,11661,01.168,551
2023-04-16T08:01:12,42.805,6.029,CST-1368DR,4321,4744,11658,01.169,551
2023-04-16T08:04:13,42.805,6.029,CST-1368DR,4321,4744,11659,01.169,551
2023-04-16T08:07:15,42.805,6.029,CST-1368DR,4321,4745,11661,01.168,551
2023-04-16T08:10:17,42.805,6.029,CST-1368DR,4321,4744,11658,01.169,551
2023-04-16T08:13:18,42.805,6.029,CST-1368DR,4321,4743,11655,01.170,551
2023-04-16T08:16:20,42.805,6.029,CST-1368DR,4321,4744,11657,01.170,551
2023-04-16T08:19:21,42.805,6.029,CST-1368DR,4321,4743,11656,01.170,551
2023-04-16T08:22:23,42.805,6.029,CST-1368DR,4321,4745,11661,01.168,551
2023-04-16T08:25:24,42.805,6.029,CST-1368DR,4321,4744,11659,01.169,551
2023-04-16T08:28:26,42.805,6.029,CST-1368DR,4321,4733,11631,01.178,551
2023-04-16T08:31:28,42.805,6.029,CST-1368DR,4321,4738,11642,01.175,551
2023-04-16T08:34:29,42.805,6.029,CST-1368DR,4321,4744,11658,01.169,551
2023-04-16T08:37:31,42.805,6.029,CST-1368DR,4321,4743,11655,01.170,551
2023-04-16T08:40:32,42.805,6.029,CST-1368DR,4321,4742,11654,01.171,551
2023-04-16T08:43:34,42.805,6.029,CST-1368DR,4321,4743,11656,01.170,551
2023-04-16T08:46:35,42.805,6.029,CST-1368DR,4321,4745,11660,01.169,552
2023-04-16T08:49:37,42.805,6.029,CST-1368DR,4321,4742,11652,01.171,551
2023-04-16T08:52:39,42.805,6.029,CST-1368DR,4321,4745,11660,01.169,551
2023-04-16T08:55:40,42.805,6.029,CST-1368DR,4321,4744,11658,01.169,551
2023-04-16T08:58:42,42.805,6.029,CST-1368DR,4321,4744,11658,01.169,551
2023-04-16T09:01:43,42.805,6.029,CST-1368DR,4321,4744,11658,01.169,551
2023-04-16T09:04:45,42.805,6.029,CST-1368DR,4321,4742,11653,01.171,551
2023-04-16T09:07:46,42.805,6.029,CST-1368DR,4321,4741,11651,01.172,551
2023-04-16T09:10:48,42.805,6.029,CST-1368DR,4321,4743,11655,01.170,551
2023-04-16T09:13:50,42.805,6.029,CST-1368DR,4321,4740,11647,01.173,551
2023-04-16T09:16:51,42.805,6.029,CST-1368DR,4321,4743,11656,01.170,551
2023-04-16T09:19:53,42.805,6.029,CST-1368DR,4321,4743,11657,01.170,552
2023-04-16T09:22:54,42.805,6.029,CST-1368DR,4321,4744,11658,01.169,551
2023-04-16T09:25:56,42.805,6.029,CST-1368DR,4321,4744,11657,01.170,551
2023-04-16T09:28:58,42.805,6.029,CST-1368DR,4321,4743,11655,01.170,551
2023-04-16T09:31:59,42.805,6.029,CST-1368DR,4321,4744,11657,01.170,551
2023-04-16T09:35:01,42.805,6.029,CST-1368DR,4321,4743,11655,01.170,552
2023-04-16T09:38:02,42.805,6.029,CST-1368DR,4321,4744,11657,01.170,552
2023-04-16T09:41:04,42.805,6.029,CST-1368DR,4321,4743,11656,01.170,551
2023-04-16T09:44:05,42.805,6.029,CST-1368DR,4321,4743,11655,01.170,551
2023-04-16T09:47:07,42.805,6.029,CST-1368DR,4321,4744,11657,01.170,551
2023-04-16T09:50:09,42.805,6.029,CST-1368DR,4321,4744,11658,01.169,551
2023-04-16T09:53:10,42.805,6.029,CST-1368DR,4321,4743,11657,01.170,551
2023-04-16T09:56:12,42.805,6.029,CST-1368DR,4321,4743,11656,01.170,552
2023-04-16T09:59:13,42.805,6.029,CST-1368DR,4321,4743,11657,01.170,551
2023-04-16T10:02:15,42.805,6.029,CST-1368DR,4321,4743,11656,01.170,551
2023-04-16T10:05:17,42.805,6.029,CST-1368DR,4321,4744,11658,01.169,551
2023-04-16T10:08:18,42.805,6.029,CST-1368DR,4321,4744,11658,01.169,551
2023-04-16T10:11:20,42.805,6.029,CST-1368DR,4321,4741,11650,01.172,551
2023-04-16T10:14:21,42.805,6.029,CST-1368DR,4321,4743,11655,01.170,551
2023-04-16T10:17:23,42.805,6.029,CST-1368DR,4321,4743,11657,01.170,551
2023-04-16T10:20:24,42.805,6.029,CST-1368DR,4321,4743,11655,01.170,551
2023-04-16T10:23:26,42.805,6.029,CST-1368DR,4321,4743,11655,01.170,551
2023-04-16T10:26:28,42.805,6.029,CST-1368DR,4321,4743,11657,01.170,551
2023-04-16T10:29:29,42.805,6.029,CST-1368DR,4321,4744,11657,01.170,551
2023-04-16T10:32:31,42.805,6.029,CST-1368DR,4321,4743,11657,01.170,551
2023-04-16T10:35:32,42.805,6.029,CST-1368DR,4321,4743,11657,01.170,551
2023-04-16T10:38:34,42.805,6.029,CST-1368DR,4321,4742,11653,01.171,551
2023-04-16T10:41:35,42.805,6.029,CST-1368DR,4321,4742,11652,01.171,551
2023-04-16T10:44:37,42.805,6.029,CST-1368DR,4321,4742,11654,01.171,551
2023-04-16T10:47:39,42.805,6.029,CST-1368DR,4321,4743,11655,01.170,551
2023-04-16T10:50:40,42.805,6.029,CST-1368DR,4321,4743,11655,01.170,551
2023-04-16T10:53:42,42.805,6.029,CST-1368DR,4321,4741,11650,01.172,551
2023-04-16T10:56:43,42.805,6.029,CST-1368DR,4321,4741,11651,01.172,551
2023-04-16T10:59:45,42.805,6.029,CST-1368DR,4321,4742,11653,01.171,551
2023-04-16T11:02:47,42.805,6.029,CST-1368DR,4321,4741,11650,01.172,551
2023-04-16T11:05:48,42.805,6.029,CST-1368DR,4321,4738,11644,01.174,551
2023-04-16T11:08:50,42.805,6.029,CST-1368DR,4321,4740,11649,01.172,551
2023-04-16T11:11:51,42.805,6.029,CST-1368DR,4321,4742,11654,01.171,551
2023-04-16T11:14:53,42.805,6.029,CST-1368DR,4321,4741,11650,01.172,551
2023-04-16T11:17:54,42.805,6.029,CST-1368DR,4321,4742,11653,01.171,551
2023-04-16T11:20:56,42.805,6.029,CST-1368DR,4321,4743,11656,01.170,551
2023-04-16T11:23:58,42.805,6.029,CST-1368DR,4321,4742,11654,01.171,551
2023-04-16T11:26:59,42.805,6.029,CST-1368DR,4321,4743,11657,01.170,551
2023-04-16T11:30:01,42.805,6.029,CST-1368DR,4321,4744,11659,01.169,551
2023-04-16T11:33:02,42.805,6.029,CST-1368DR,4321,4742,11654,01.171,551
2023-04-16T11:36:04,42.805,6.029,CST-1368DR,4321,4742,11653,01.171,551
2023-04-16T11:39:05,42.805,6.029,CST-1368DR,4321,4742,11654,01.171,551
2023-04-16T11:42:07,42.805,6.029,CST-1368DR,4321,4741,11650,01.172,551
2023-04-16T11:45:09,42.805,6.029,CST-1368DR,4321,4739,11645,01.174,551
2023-04-16T11:48:10,42.805,6.029,CST-1368DR,4321,4739,11646,01.173,551
2023-04-16T11:51:12,42.805,6.029,CST-1368DR,4321,4739,11645,01.174,551
2023-04-16T11:54:13,42.805,6.029,CST-1368DR,4321,4740,11647,01.173,551
2023-04-16T11:57:15,42.805,6.029,CST-1368DR,4321,4739,11647,01.173,551
2023-04-16T12:00:17,42.805,6.029,CST-1368DR,4321,4743,11656,01.170,551
2023-04-16T12:03:18,42.805,6.029,CST-1368DR,4321,4743,11655,01.170,551
2023-04-16T12:06:20,42.805,6.029,CST-1368DR,4321,4744,11659,01.169,551
2023-04-16T12:09:21,42.805,6.029,CST-1368DR,4321,4743,11656,01.170,551
2023-04-16T12:12:23,42.805,6.029,CST-1368DR,4321,4744,11658,01.169,551
2023-04-16T12:15:24,42.805,6.029,CST-1368DR,4321,4743,11656,01.170,551
2023-04-16T12:18:26,42.805,6.029,CST-1368DR,4321,4743,11655,01.170,551
2023-04-16T12:21:28,42.805,6.029,CST-1368DR,4321,4744,11657,01.170,552
2023-04-16T12:24:29,42.805,6.029,CST-1368DR,4321,4744,11658,01.169,551
2023-04-16T12:27:31,42.805,6.029,CST-1368DR,4321,4744,11658,01.169,551
2023-04-16T12:30:34,42.805,6.029,CST-1368DR,4321,4743,11655,01.170,551
2023-04-16T12:33:35,42.805,6.029,CST-1368DR,4321,4743,11655,01.170,551
2023-04-16T12:36:37,42.805,6.029,CST-1368DR,4321,4743,11655,01.170,552
2023-04-16T12:39:38,42.805,6.029,CST-1368DR,4321,4744,11658,01.169,551
2023-04-16T12:42:40,42.805,6.029,CST-1368DR,4321,4742,11654,01.171,551
2023-04-16T12:45:42,42.805,6.029,CST-1368DR,4321,4742,11652,01.171,551
2023-04-16T12:48:43,42.805,6.029,CST-1368DR,4321,4740,11649,01.172,551
2023-04-16T12:51:45,42.805,6.029,CST-1368DR,4321,4741,11650,01.172,551
2023-04-16T12:54:46,42.805,6.029,CST-1368DR,4321,4740,11649,01.172,552
2023-04-16T12:57:48,42.805,6.029,CST-1368DR,4321,4743,11655,01.170,551
2023-04-16T13:00:49,42.805,6.029,CST-1368DR,4321,4744,11658,01.169,551
2023-04-16T13:03:51,42.805,6.029,CST-1368DR,4321,4743,11657,01.170,551
2023-04-16T13:06:53,42.805,6.029,CST-1368DR,4321,4743,11655,01.170,551
2023-04-16T13:09:54,42.805,6.029,CST-1368DR,4321,4743,11655,01.170,551
2023-04-16T13:12:56,42.805,6.029,CST-1368DR,4321,4744,11658,01.169,551
2023-04-16T13:15:57,42.805,6.029,CST-1368DR,4321,4742,11653,01.171,551
2023-04-16T13:25:06,42.805,6.029,CST-1368DR,4321,4743,11656,01.170,551
2023-04-16T13:28:08,42.805,6.029,CST-1368DR,4321,4740,11649,01.172,551
2023-04-16T13:31:09,42.805,6.029,CST-1368DR,4321,4741,11650,01.172,551
2023-04-16T13:34:11,42.805,6.029,CST-1368DR,4321,4743,11655,01.170,551
2023-04-16T13:37:12,42.805,6.029,CST-1368DR,4321,4742,11654,01.171,551
2023-04-16T13:40:14,42.805,6.029,CST-1368DR,4321,4739,11645,01.174,551
2023-04-16T13:43:15,42.805,6.029,CST-1368DR,4321,4742,11653,01.171,551
2023-04-16T13:46:17,42.805,6.029,CST-1368DR,4321,4744,11658,01.169,551
2023-04-16T13:49:19,42.805,6.029,CST-1368DR,4321,4743,11657,01.170,551
2023-04-16T13:52:20,42.805,6.029,CST-1368DR,4321,4740,11648,01.173,551
2023-04-16T13:55:22,42.805,6.029,CST-1368DR,4321,4742,11652,01.171,551
2023-04-16T13:58:23,42.805,6.029,CST-1368DR,4321,4744,11657,01.170,551
2023-04-16T14:01:25,42.805,6.029,CST-1368DR,4321,4743,11655,01.170,551
2023-04-16T14:04:27,42.805,6.029,CST-1368DR,4321,4741,11650,01.172,552
2023-04-16T14:07:28,42.805,6.029,CST-1368DR,4321,4741,11651,01.172,551
2023-04-16T14:10:30,42.805,6.029,CST-1368DR,4321,4744,11658,01.169,551
2023-04-16T14:13:31,42.805,6.029,CST-1368DR,4321,4743,11657,01.170,551
2023-04-16T14:16:33,42.805,6.029,CST-1368DR,4321,4740,11647,01.173,551
2023-04-16T14:19:34,42.805,6.029,CST-1368DR,4321,4742,11654,01.171,552
2023-04-16T14:22:36,42.805,6.029,CST-1368DR,4321,4742,11652,01.171,551
2023-04-16T14:25:38,42.805,6.029,CST-1368DR,4321,4740,11649,01.172,551
2023-04-16T14:28:39,42.805,6.029,CST-1368DR,4321,4740,11647,01.173,551
2023-04-16T14:31:41,42.805,6.029,CST-1368DR,4321,4741,11650,01.172,551
2023-04-16T14:34:42,42.805,6.029,CST-1368DR,4321,4741,11650,01.172,551
2023-04-16T14:37:44,42.805,6.029,CST-1368DR,4321,4740,11649,01.172,551
2023-04-16T14:40:45,42.805,6.029,CST-1368DR,4321,4740,11649,01.172,552
2023-04-16T14:43:47,42.805,6.029,CST-1368DR,4321,4739,11646,01.173,551
2023-04-16T14:46:48,42.805,6.029,CST-1368DR,4321,4739,11646,01.173,551
2023-04-16T14:49:50,42.805,6.029,CST-1368DR,4321,4739,11647,01.173,551
2023-04-16T14:52:52,42.805,6.029,CST-1368DR,4321,4739,11645,01.174,551
2023-04-16T14:55:53,42.805,6.029,CST-1368DR,4321,4740,11649,01.172,551
2023-04-16T14:58:55,42.805,6.029,CST-1368DR,4321,4740,11649,01.172,551
2023-04-16T15:01:56,42.805,6.029,CST-1368DR,4321,4740,11648,01.173,551
2023-04-16T15:04:58,42.805,6.029,CST-1368DR,4321,4738,11642,01.175,551
2023-04-16T15:07:59,42.805,6.029,CST-1368DR,4321,4732,11628,01.180,552
2023-04-16T15:11:01,42.805,6.029,CST-1368DR,4321,4733,11631,01.178,551
2023-04-16T15:14:03,42.805,6.029,CST-1368DR,4321,4733,11631,01.178,551
2023-04-16T15:17:04,42.805,6.029,CST-1368DR,4321,4726,11615,01.184,551
2023-04-16T15:20:06,42.805,6.029,CST-1368DR,4321,4720,11598,01.190,551
2023-04-16T15:23:07,42.805,6.029,CST-1368DR,4321,4732,11630,01.179,551
2023-04-16T15:26:09,42.805,6.029,CST-1368DR,4321,4734,11633,01.178,551
2023-04-16T15:29:11,42.805,6.029,CST-1368DR,4321,4732,11630,01.179,551
2023-04-16T15:32:12,42.805,6.029,CST-1368DR,4321,4733,11631,01.178,551
2023-04-16T15:35:14,42.805,6.029,CST-1368DR,4321,4739,11646,01.173,551
